| time (UTC) | temp F | wind direction | speed MPH | gust MPH | rain 1hr in | rain 24hr in | rain mn in | humidity % | barometer mb |
| 20260505113603 | 53 | 323 | 1.0 | 8.0 | 0.04 | 0.29 | 0.04 | 86 | 1008.7 |
| 20260505112703 | 53 | 326 | 2.0 | 8.0 | 0.04 | 0.29 | 0.04 | 84 | 1008.4 |
| 20260505111824 | 54 | 323 | 1.0 | 8.0 | 0.04 | 0.29 | 0.04 | 83 | 1008.1 |
| 20260505110903 | 55 | 325 | 2.0 | 6.0 | 0.02 | 0.27 | 0.02 | 81 | 1007.9 |
| 20260505101803 | 58 | 326 | 3.0 | 11.0 | 0.00 | 0.25 | 0.00 | 82 | 1007.4 |
| 20260505100903 | 58 | 326 | 3.0 | 10.0 | 0.00 | 0.25 | 0.00 | 82 | 1007.3 |
| 20260505100003 | 60 | 324 | 2.0 | 6.0 | 0.00 | 0.25 | 0.00 | 84 | 1007.0 |
| 20260505095403 | 60 | 323 | 2.0 | 8.0 | 0.00 | 0.25 | 0.00 | 82 | 1007.1 |
| 20260505094503 | 62 | 330 | 3.0 | 9.0 | 0.00 | 0.25 | 0.00 | 80 | 1006.9 |
| 20260505093603 | 63 | 325 | 2.0 | 8.0 | 0.00 | 0.25 | 0.00 | 79 | 1006.6 |
| 20260505092703 | 64 | 326 | 1.0 | 8.0 | 0.00 | 0.25 | 0.00 | 77 | 1006.5 |
| 20260505091803 | 64 | 322 | 2.0 | 5.0 | 0.00 | 0.25 | 0.00 | 75 | 1006.2 |
| 20260505090903 | 64 | 329 | 0.0 | 2.0 | 0.00 | 0.25 | 0.00 | 74 | 1005.8 |
| 20260505090004 | 64 | 0 | 0.0 | 0.0 | 0.00 | 0.25 | 0.00 | 74 | 1005.6 |
| 20260505085403 | 64 | 132 | 0.0 | 1.0 | 0.00 | 0.25 | 0.00 | 73 | 1005.5 |
| 20260505084503 | 64 | 130 | 0.0 | 1.0 | 0.00 | 0.25 | 0.00 | 74 | 1005.3 |
| 20260505083603 | 64 | 129 | 0.0 | 1.0 | 0.00 | 0.25 | 0.00 | 73 | 1005.3 |
| 20260505082724 | 65 | 129 | 0.0 | 1.0 | 0.00 | 0.25 | 0.00 | 74 | 1005.1 |
| 20260505081803 | 65 | 137 | 1.0 | 3.0 | 0.00 | 0.25 | 0.00 | 72 | 1005.2 |
| 20260505080903 | 65 | 309 | 0.0 | 1.0 | 0.00 | 0.25 | 0.00 | 72 | 1005.1 |
| 20260505080003 | 66 | 0 | 0.0 | 0.0 | 0.00 | 0.25 | 0.00 | 69 | 1005.6 |
| 20260505075424 | 66 | 0 | 0.0 | 1.0 | 0.00 | 0.25 | 0.00 | 67 | 1005.8 |
| 20260505074503 | 66 | 321 | 0.0 | 3.0 | 0.00 | 0.25 | 0.00 | 67 | 1006.0 |
| 20260505073603 | 66 | 317 | 1.0 | 3.0 | 0.00 | 0.25 | 0.00 | 65 | 1006.0 |
| 20260505072703 | 67 | 307 | 0.0 | 1.0 | 0.00 | 0.25 | 0.00 | 65 | 1006.0 |
| 20260505071824 | 67 | 323 | 1.0 | 4.0 | 0.00 | 0.25 | 0.00 | 65 | 1006.0 |
| 20260505070903 | 67 | 310 | 1.0 | 11.0 | 0.00 | 0.25 | 0.00 | 64 | 1005.9 |
| 20260505070003 | 68 | 328 | 3.0 | 8.0 | 0.00 | 0.25 | 0.00 | 64 | 1006.1 |
| 20260505065424 | 68 | 328 | 4.0 | 13.0 | 0.00 | 0.25 | 0.00 | 63 | 1006.4 |
| 20260505064503 | 70 | 330 | 4.0 | 11.0 | 0.00 | 0.25 | 0.00 | 60 | 1006.3 |
| 20260505063603 | 71 | 310 | 2.0 | 8.0 | 0.00 | 0.25 | 0.00 | 61 | 1005.2 |
| 20260505062724 | 71 | 169 | 2.0 | 11.0 | 0.00 | 0.25 | 0.00 | 60 | 1004.5 |
| 20260505061803 | 72 | 177 | 3.0 | 12.0 | 0.00 | 0.25 | 0.00 | 60 | 1004.5 |
| 20260505060903 | 72 | 182 | 2.0 | 9.0 | 0.00 | 0.25 | 0.00 | 60 | 1004.4 |
| 20260505060004 | 72 | 185 | 2.0 | 9.0 | 0.00 | 0.25 | 0.00 | 60 | 1004.3 |
| 20260505055403 | 72 | 183 | 2.0 | 9.0 | 0.00 | 0.25 | 0.00 | 60 | 1004.2 |
| 20260505054524 | 72 | 216 | 2.0 | 6.0 | 0.00 | 0.25 | 0.00 | 60 | 1004.2 |
| 20260505053603 | 72 | 181 | 3.0 | 8.0 | 0.00 | 0.25 | 0.00 | 59 | 1004.0 |
| 20260505052703 | 72 | 162 | 2.0 | 9.0 | 0.00 | 0.25 | 0.00 | 59 | 1003.8 |
| 20260505051803 | 72 | 163 | 3.0 | 9.0 | 0.00 | 0.25 | 0.00 | 59 | 1003.6 |
| 20260505050903 | 72 | 143 | 2.0 | 8.0 | 0.00 | 0.25 | 0.00 | 59 | 1003.4 |
| 20260505040903 | 72 | 140 | 2.0 | 7.0 | 0.00 | 0.25 | 0.25 | 58 | 1003.2 |
| 20260505040004 | 73 | 143 | 1.0 | 7.0 | 0.00 | 0.25 | 0.25 | 58 | 1003.4 |
| 20260505035424 | 73 | 143 | 2.0 | 6.0 | 0.00 | 0.25 | 0.25 | 58 | 1003.5 |
| 20260505034503 | 73 | 142 | 2.0 | 5.0 | 0.00 | 0.25 | 0.25 | 57 | 1003.7 |
| 20260505033603 | 74 | 139 | 2.0 | 6.0 | 0.00 | 0.25 | 0.25 | 56 | 1003.7 |
| 20260505032703 | 74 | 143 | 2.0 | 5.0 | 0.00 | 0.25 | 0.25 | 56 | 1003.6 |
| 20260505031803 | 74 | 146 | 2.0 | 6.0 | 0.00 | 0.25 | 0.25 | 56 | 1003.6 |
| 20260505030924 | 75 | 141 | 2.0 | 5.0 | 0.00 | 0.25 | 0.25 | 55 | 1003.6 |
| 20260505030004 | 75 | 143 | 2.0 | 5.0 | 0.00 | 0.25 | 0.25 | 55 | 1003.6 |
| 20260505025403 | 75 | 142 | 2.0 | 5.0 | 0.00 | 0.25 | 0.25 | 55 | 1003.5 |
| 20260505024524 | 75 | 140 | 2.0 | 5.0 | 0.00 | 0.25 | 0.25 | 55 | 1003.3 |
| 20260505023603 | 75 | 139 | 1.0 | 6.0 | 0.00 | 0.25 | 0.25 | 55 | 1003.3 |
| 20260505022703 | 75 | 140 | 1.0 | 4.0 | 0.00 | 0.25 | 0.25 | 55 | 1003.0 |
| 20260505021803 | 75 | 137 | 1.0 | 5.0 | 0.00 | 0.25 | 0.25 | 55 | 1002.8 |
| 20260505020903 | 75 | 137 | 1.0 | 5.0 | 0.00 | 0.25 | 0.25 | 55 | 1002.7 |
| 20260505020003 | 75 | 142 | 1.0 | 4.0 | 0.00 | 0.25 | 0.25 | 55 | 1002.5 |
| 20260505015403 | 75 | 135 | 1.0 | 3.0 | 0.00 | 0.25 | 0.25 | 55 | 1002.4 |
| 20260505014503 | 75 | 136 | 1.0 | 3.0 | 0.00 | 0.25 | 0.25 | 54 | 1002.3 |
| 20260505013603 | 76 | 141 | 1.0 | 3.0 | 0.00 | 0.25 | 0.25 | 53 | 1002.2 |
| 20260505012703 | 76 | 144 | 2.0 | 7.0 | 0.00 | 0.25 | 0.25 | 53 | 1002.1 |
| 20260505011824 | 76 | 138 | 2.0 | 5.0 | 0.00 | 0.25 | 0.25 | 52 | 1002.1 |
| 20260505010903 | 77 | 145 | 2.0 | 5.0 | 0.00 | 0.25 | 0.25 | 52 | 1002.0 |
| 20260505010004 | 77 | 140 | 2.0 | 4.0 | 0.00 | 0.25 | 0.25 | 52 | 1002.0 |
| 20260505005424 | 77 | 136 | 1.0 | 4.0 | 0.00 | 0.25 | 0.25 | 51 | 1001.9 |
| 20260505004503 | 77 | 138 | 1.0 | 4.0 | 0.00 | 0.25 | 0.25 | 51 | 1001.7 |
| 20260505003603 | 78 | 133 | 2.0 | 7.0 | 0.00 | 0.25 | 0.25 | 50 | 1001.6 |
| 20260505002703 | 78 | 155 | 2.0 | 7.0 | 0.00 | 0.25 | 0.25 | 49 | 1001.6 |
| 20260505001803 | 79 | 158 | 1.0 | 11.0 | 0.00 | 0.25 | 0.25 | 49 | 1001.6 |
| 20260505000903 | 79 | 162 | 1.0 | 4.0 | 0.00 | 0.25 | 0.25 | 49 | 1001.6 |
| 20260505000004 | 79 | 153 | 2.0 | 13.0 | 0.00 | 0.25 | 0.25 | 48 | 1001.6 |
| 20260504235424 | 80 | 138 | 2.0 | 13.0 | 0.00 | 0.25 | 0.25 | 48 | 1001.6 |
| 20260504234503 | 80 | 167 | 2.0 | 10.0 | 0.00 | 0.25 | 0.25 | 47 | 1001.6 |
| 20260504233603 | 80 | 145 | 2.0 | 11.0 | 0.00 | 0.25 | 0.25 | 47 | 1001.6 |
| 20260504232703 | 80 | 144 | 2.0 | 13.0 | 0.00 | 0.25 | 0.25 | 48 | 1001.7 |
| 20260504231803 | 80 | 167 | 1.0 | 7.0 | 0.00 | 0.25 | 0.25 | 47 | 1001.9 |
| 20260504230903 | 80 | 177 | 2.0 | 10.0 | 0.00 | 0.25 | 0.25 | 48 | 1001.9 |
| 20260504230003 | 80 | 160 | 2.0 | 11.0 | 0.00 | 0.25 | 0.25 | 47 | 1002.0 |
| 20260504225403 | 80 | 153 | 2.0 | 9.0 | 0.00 | 0.25 | 0.25 | 48 | 1002.1 |
| 20260504224503 | 78 | 142 | 1.0 | 9.0 | 0.00 | 0.25 | 0.25 | 57 | 1002.1 |
| 20260504223603 | 78 | 144 | 0.0 | 4.0 | 0.00 | 0.25 | 0.25 | 60 | 1002.2 |
| 20260504222703 | 78 | 140 | 0.0 | 4.0 | 0.00 | 0.25 | 0.25 | 60 | 1002.3 |
| 20260504221803 | 77 | 142 | 1.0 | 4.0 | 0.00 | 0.25 | 0.25 | 61 | 1002.5 |
| 20260504220924 | 77 | 134 | 1.0 | 6.0 | 0.00 | 0.25 | 0.25 | 59 | 1002.4 |
| 20260504220003 | 78 | 138 | 1.0 | 8.0 | 0.00 | 0.25 | 0.25 | 59 | 1002.3 |
| 20260504215424 | 77 | 136 | 1.0 | 7.0 | 0.00 | 0.25 | 0.25 | 58 | 1002.3 |
| 20260504214503 | 78 | 139 | 1.0 | 8.0 | 0.00 | 0.25 | 0.25 | 59 | 1002.4 |
| 20260504213603 | 78 | 137 | 1.0 | 11.0 | 0.00 | 0.25 | 0.25 | 61 | 1002.4 |
| 20260504212703 | 77 | 138 | 1.0 | 8.0 | 0.00 | 0.25 | 0.25 | 65 | 1002.5 |
| 20260504211803 | 77 | 135 | 0.0 | 3.0 | 0.00 | 0.25 | 0.25 | 64 | 1002.6 |
| 20260504210903 | 76 | 136 | 1.0 | 5.0 | 0.00 | 0.25 | 0.25 | 65 | 1002.6 |
| 20260504210004 | 76 | 144 | 1.0 | 5.0 | 0.00 | 0.25 | 0.25 | 63 | 1002.7 |
| 20260504205403 | 76 | 140 | 0.0 | 3.0 | 0.00 | 0.25 | 0.25 | 65 | 1003.0 |
| 20260504204503 | 76 | 135 | 1.0 | 6.0 | 0.00 | 0.25 | 0.25 | 66 | 1003.1 |
| 20260504203603 | 75 | 142 | 1.0 | 6.0 | 0.00 | 0.25 | 0.25 | 67 | 1003.2 |
| 20260504202724 | 75 | 138 | 1.0 | 7.0 | 0.00 | 0.25 | 0.25 | 66 | 1003.2 |
| 20260504201824 | 74 | 142 | 1.0 | 8.0 | 0.00 | 0.25 | 0.25 | 72 | 1003.3 |
| 20260504200903 | 73 | 132 | 1.0 | 7.0 | 0.00 | 0.25 | 0.25 | 74 | 1003.3 |
| 20260504200003 | 72 | 141 | 2.0 | 7.0 | 0.00 | 0.25 | 0.25 | 75 | 1003.2 |
| 20260504195403 | 72 | 140 | 2.0 | 9.0 | 0.00 | 0.25 | 0.25 | 77 | 1003.2 |
| 20260504194524 | 70 | 134 | 1.0 | 4.0 | 0.00 | 0.25 | 0.25 | 82 | 1003.3 |
| 20260504193624 | 69 | 144 | 1.0 | 7.0 | 0.00 | 0.25 | 0.25 | 83 | 1003.7 |
| 20260504192703 | 68 | 139 | 0.0 | 2.0 | 0.00 | 0.25 | 0.25 | 87 | 1003.9 |
| 20260504191803 | 66 | 144 | 1.0 | 7.0 | 0.00 | 0.25 | 0.25 | 89 | 1003.7 |
| 20260504190903 | 64 | 141 | 2.0 | 8.0 | 0.00 | 0.25 | 0.25 | 88 | 1003.6 |
| 20260504190004 | 63 | 136 | 0.0 | 7.0 | 0.01 | 0.25 | 0.25 | 91 | 1003.8 |
| 20260504185403 | 63 | 134 | 0.0 | 1.0 | 0.01 | 0.25 | 0.25 | 90 | 1004.8 |
| 20260504184524 | 63 | 134 | 0.0 | 1.0 | 0.02 | 0.25 | 0.25 | 89 | 1005.2 |
| 20260504183624 | 63 | 143 | 0.0 | 1.0 | 0.03 | 0.25 | 0.25 | 90 | 1005.2 |
| 20260504182703 | 63 | 146 | 0.0 | 3.0 | 0.07 | 0.25 | 0.25 | 89 | 1004.9 |
| 20260504181803 | 62 | 142 | 1.0 | 7.0 | 0.13 | 0.25 | 0.25 | 88 | 1004.8 |
| 20260504180903 | 61 | 143 | 1.0 | 7.0 | 0.16 | 0.25 | 0.25 | 89 | 1004.9 |
| 20260504180024 | 61 | 144 | 3.0 | 10.0 | 0.15 | 0.24 | 0.24 | 89 | 1004.7 |
| 20260504175403 | 61 | 143 | 2.0 | 8.0 | 0.16 | 0.24 | 0.24 | 90 | 1004.7 |
| 20260504174503 | 61 | 130 | 1.0 | 2.0 | 0.17 | 0.23 | 0.23 | 91 | 1005.7 |
| 20260504173624 | 61 | 130 | 0.0 | 2.0 | 0.19 | 0.22 | 0.23 | 91 | 1005.5 |
| 20260504172703 | 61 | 131 | 0.0 | 1.0 | 0.18 | 0.18 | 0.18 | 90 | 1005.4 |
| 20260504171803 | 61 | 130 | 1.0 | 2.0 | 0.12 | 0.12 | 0.12 | 87 | 1005.5 |
| 20260504170903 | 62 | 148 | 0.0 | 2.0 | 0.09 | 0.09 | 0.09 | 86 | 1005.7 |
| 20260504150924 | 68 | 137 | 1.0 | 2.0 | 0.00 | 0.00 | 0.00 | 62 | 1007.1 |
| 20260504140903 | 68 | 144 | 2.0 | 7.0 | 0.00 | 0.00 | 0.00 | 64 | 1006.9 |